Probability
0 0 0 0 0 0 0 0 0 0 0 0 0 0 0 0 0 0 0 0 0 0 0 0 1 2 3 3 3 3 3 3 4 5 5 5 5 3 1 0 0 0 0 0
0 0 0 0 0 0 0 0 0 0 0 0 0 0 0 0 0 0 0 0 0 0 0 0 0 1 2 3 3 3 3 3 3 4 4 4 4 3 1 0 0 0 0 0
0 0 0 0 0 0 0 0 0 0 0 0 0 0 0 0 0 0 0 0 0 0 0 0 0 0 1 2 3 3 3 3 3 3 3 3 3 3 2 1 0 0 0 0
0 0 0 0 0 0 0 0 0 0 0 0 0 0 0 0 0 0 0 0 0 0 0 0 0 0 0 1 3 3 3 3 3 3 3 3 3 3 3 1 0 0 0 0
0 0 0 0 0 0 0 0 0 0 0 0 0 0 0 0 0 0 0 0 0 0 0 0 0 0 0 1 2 3 3 3 3 3 3 3 3 3 3 2 1 0 0 0
0 0 0 0 0 0 0 0 0 0 0 0 0 0 0 0 0 0 0 0 0 0 0 0 0 0 0 0 1 2 3 3 3 3 3 3 3 3 3 2 1 0 0 0
0 0 0 0 0 0 0 0 0 0 0 0 0 0 0 0 0 0 0 0 0 0 0 0 0 0 0 0 0 1 2 3 3 3 3 3 3 3 3 3 1 0 0 0
0 0 0 0 0 0 0 0 0 0 0 0 0 0 0 0 0 0 0 0 0 0 0 0 0 0 0 0 0 0 1 2 3 3 3 3 3 3 3 3 2 1 0 0
0 0 0 0 0 0 0 0 0 0 0 0 0 0 0 0 0 0 0 0 0 0 0 0 0 0 0 0 0 0 0 1 2 3 3 3 3 3 3 3 3 2 1 0
0 0 0 0 0 0 0 0 0 0 0 0 0 0 0 0 0 0 0 0 0 0 0 0 0 0 0 0 0 0 0 0 1 1 2 3 3 3 3 3 3 3 1 0
0 0 0 0 0 0 0 0 0 0 0 0 0 0 0 0 0 0 0 0 0 0 0 0 0 0 0 0 0 0 0 0 0 0 1 1 2 2 2 2 2 2 2 1
0 0 0 0 0 0 0 0 0 0 0 0 0 0 0 0 0 0 0 0 0 0 0 0 0 0 0 0 0 0 0 0 0 0 0 0 1 1 1 1 1 1 2 2
0 0 0 0 0 0 0 0 0 0 0 0 0 0 0 0 0 0 0 0 0 0 0 0 0 0 0 0 0 0 0 0 0 0 0 0 0 0 0 0 0 0 1 1
0 0 0 0 0 0 0 0 0 0 0 0 0 0 0 0 0 0 0 0 0 0 0 0 0 0 0 0 0 0 0 0 0 0 0 0 0 0 0 0 0 0 0 0
0 0 0 0 0 0 0 0 0 0 0 0 0 0 0 0 0 0 0 0 0 0 0 0 0 0 0 0 0 0 0 0 0 0 0 0 0 0 0 0 0 0 0 0
0 0 0 0 0 0 0 0 0 0 0 0 0 0 0 0 0 0 0 0 0 0 0 0 0 0 0 0 0 0 0 0 0 0 0 0 0 0 0 0 0 0 0 0
0 0 0 0 0 0 0 0 0 0 0 0 0 0 0 0 0 0 0 0 0 0 0 0 0 0 0 0 0 0 0 0 0 0 0 0 0 0 0 0 0 0 0 0
0 0 0 0 0 0 0 0 0 0 0 0 0 0 0 0 0 0 0 0 0 0 0 0 0 0 0 0 0 0 0 0 0 0 0 0 0 0 0 0 0 0 0 0
0 0 0 0 0 0 0 0 0 0 0 0 0 0 0 0 0 0 0 0 0 0 0 0 0 0 0 0 0 0 0 0 0 0 0 0 0 0 0 0 0 0 0 0
0 0 0 0 0 0 0 0 0 0 0 0 0 0 0 0 0 0 0 0 0 0 0 0 0 0 0 0 0 0 0 0 0 0 0 0 0 0 0 0 0 0 0 0
0 0 0 0 0 0 0 0 0 0 0 0 0 0 0 0 0 0 0 0 0 0 0 0 0 0 0 0 0 0 0 0 0 0 0 0 0 0 0 0 0 0 0 0
0 0 0 0 0 0 0 0 0 0 0 0 0 0 0 0 0 0 0 0 0 0 0 0 0 0 0 0 0 0 0 0 0 0 0 0 0 0 0 0 0 0 0 0
0 0 0 0 0 0 0 0 0 0 0 0 0 0 0 0 0 0 0 0 0 0 0 0 0 0 0 0 0 0 0 0 0 0 0 0 0 0 0 0 0 0 0 0
0 0 0 0 0 0 0 0 0 0 0 0 0 0 0 0 0 0 0 0 0 0 0 0 0 0 0 0 0 0 0 0 0 0 0 0 0 0 0 0 0 0 0 0
0 0 0 0 0 0 0 0 0 0 0 0 0 0 0 0 0 0 0 0 0 0 0 0 0 0 0 0 0 0 0 0 0 0 0 0 0 0 0 0 0 0 0 0
0 0 0 0 0 0 0 0 0 0 0 0 0 0 0 0 0 0 0 0 0 0 0 0 0 0 0 0 0 0 0 0 0 0 0 0 0 0 0 0 0 0 0 0
Wind_Speed
2 3 2 5 6 4 3 3 5 6 3 3 7 11 10 6 6 6 6 6 6 7 6 4 3 3 3 3 3 3 3 2 2 2 2 2 2 1 1 1 1 1 2 2
3 3 5 2 2 2 2 4 6 5 3 3 6 12 10 7 7 7 7 7 7 6 5 4 3 3 3 4 4 3 3 3 3 3 2 2 2 2 2 1 1 1 1 2
5 2 1 2 2 2 4 5 6 6 5 3 5 10 7 4 4 5 6 6 6 6 6 5 5 4 3 4 5 4 4 4 3 2 1 1 1 0 0 1 1 1 1 2
2 2 1 1 2 3 6 4 4 4 3 5 1 7 8 4 4 5 6 5 6 6 5 5 4 4 4 5 4 4 4 4 3 3 3 4 3 3 3 2 2 2 2 2
2 0 1 2 3 2 3 2 2 3 3 4 2 5 10 2 5 6 6 6 6 6 5 5 5 5 4 3 3 3 3 3 3 4 4 4 3 3 1 1 2 2 2 2
2 1 2 2 1 2 1 2 2 2 1 6 5 5 10 5 6 5 4 4 5 4 4 4 3 2 2 1 1 2 3 3 3 4 4 5 4 3 2 2 2 2 2 2
3 2 1 1 1 2 2 3 3 4 2 7 3 5 11 6 5 5 4 4 4 3 3 3 2 2 2 1 1 2 3 3 3 3 4 4 4 4 4 3 3 3 2 2
2 4 3 2 3 4 3 4 5 4 6 6 3 8 8 4 3 2 3 3 3 3 3 3 2 2 2 2 1 1 3 3 3 3 3 3 3 3 3 3 3 3 3 3
5 5 1 1 1 5 3 3 3 2 2 5 7 7 8 3 3 2 3 3 5 4 3 3 3 2 1 1 1 2 2 2 3 3 3 2 2 2 2 2 2 2 2 2
4 3 2 2 0 1 3 4 3 3 3 6 7 6 6 4 4 4 4 4 5 4 3 3 3 3 2 2 1 1 1 2 1 2 3 2 2 2 2 1 1 2 2 2
2 3 2 0 4 5 2 2 3 2 3 4 6 8 4 4 3 4 5 4 4 4 3 3 3 2 2 2 2 1 1 1 1 1 1 1 2 2 2 2 2 2 2 2
3 3 3 5 2 1 3 4 5 4 5 4 5 10 2 2 2 3 5 5 5 4 3 3 2 2 2 2 2 1 1 1 1 1 0 1 1 1 1 2 2 2 2 2
5 4 1 4 3 1 2 3 3 3 2 4 6 11 2 3 4 4 4 5 5 4 4 3 2 2 2 2 2 2 2 2 1 1 0 0 0 1 1 1 1 1 1 1
3 4 7 9 6 4 5 5 5 5 5 7 11 13 10 8 7 7 6 5 5 4 3 3 3 3 2 2 2 2 2 2 1 1 1 1 1 1 1 1 1 1 0 0
4 5 6 6 4 4 6 9 9 10 10 11 12 12 15 11 8 7 6 5 5 5 4 3 3 3 3 3 3 2 3 2 1 1 1 2 2 1 1 1 1 1 1 1
3 3 2 4 3 4 9 12 11 12 11 13 13 17 13 9 5 6 6 5 6 6 6 5 4 3 3 3 2 2 3 2 1 1 2 2 1 1 1 1 1 1 1 1
5 5 3 5 2 3 11 11 12 10 9 10 14 16 8 7 7 8 7 5 6 7 6 5 5 4 4 3 2 2 2 2 1 1 2 2 2 1 1 1 1 1 1 1
7 6 3 1 2 10 10 3 7 10 10 10 10 10 8 8 8 6 5 5 6 7 5 5 4 4 3 2 2 2 1 1 1 1 2 2 2 2 1 1 1 1 1 1
6 7 4 3 5 11 9 4 5 6 9 8 10 10 8 5 4 6 5 4 6 6 5 4 3 2 2 2 1 1 1 1 1 1 2 2 1 1 1 1 1 1 1 1
2 4 5 5 5 10 8 3 2 2 8 5 7 9 7 1 3 7 3 3 4 4 2 2 1 1 1 2 1 0 1 1 2 2 2 2 1 1 1 1 1 1 1 1
4 4 7 7 8 11 7 2 4 5 8 3 5 6 5 5 8 5 3 4 3 3 2 1 1 1 1 1 0 0 1 2 3 2 1 1 1 1 1 1 1 1 1 1
10 8 8 6 8 12 4 6 8 8 3 2 3 4 5 7 6 4 4 4 3 2 2 1 1 1 2 1 1 1 2 3 2 1 1 1 1 1 1 1 1 1 1 1
10 11 9 12 11 4 6 7 5 2 3 3 4 4 4 5 6 5 4 3 3 2 1 1 1 1 2 2 1 1 2 2 2 1 1 1 1 1 1 1 1 1 1 0
5 3 4 6 8 5 4 4 3 3 4 5 4 4 3 5 6 4 3 3 2 1 1 1 1 1 2 2 2 1 2 2 1 1 1 1 1 1 1 1 0 0 0 0
7 6 5 7 6 3 5 6 7 5 4 5 5 4 4 4 5 4 3 3 2 1 1 1 0 1 2 2 2 2 2 1 1 1 1 1 1 0 0 1 1 1 1 1
6 8 9 9 6 6 6 5 4 4 5 5 5 4 3 3 4 3 3 2 1 1 1 1 1 1 2 2 2 2 2 1 0 0 1 0 0 0 0 1 2 2 2 3
Wind_Direction
45 84 194 215 209 213 194 219 257 265 271 256 253 266 268 258 249 252 255 253 255 259 268 274 256 239 230 225 219 220 211 207 176 175 186 199 218 222 226 227 228 209 194 182
57 246 238 216 199 209 222 253 270 286 284 261 276 276 269 246 236 238 243 247 251 264 285 282 276 255 226 220 216 216 213 208 198 198 195 198 201 212 215 227 248 235 206 195
184 236 208 168 195 218 246 237 251 269 311 302 305 291 268 254 237 254 250 248 250 244 252 262 262 255 241 225 217 216 212 207 204 194 163 121 95 74 191 230 232 240 227 212
233 272 132 174 227 209 254 245 246 266 293 286 270 287 280 262 272 267 263 257 256 256 254 258 257 257 249 237 216 212 209 207 199 178 177 179 190 210 227 227 227 234 225 214
242 199 156 212 236 203 240 284 255 257 246 283 253 254 280 289 268 267 258 257 258 257 253 255 249 246 253 248 211 203 207 209 202 189 189 190 207 228 234 218 223 232 234 226
247 232 198 205 257 197 202 17 357 9 68 267 234 220 274 240 235 259 259 259 264 272 275 272 275 283 296 313 230 195 193 211 207 199 196 196 205 214 214 221 226 233 242 241
309 278 260 166 69 17 82 81 6 347 319 254 219 225 252 250 230 230 243 262 278 279 281 293 311 318 314 302 263 227 196 211 211 202 205 206 206 203 211 218 220 224 235 247
197 267 231 203 181 188 200 160 174 221 248 281 258 238 254 264 261 265 269 281 298 296 292 289 280 273 285 288 279 241 216 215 209 205 214 211 206 204 215 222 226 228 235 239
185 242 317 245 232 152 157 202 196 177 277 280 265 274 295 284 307 316 312 314 299 296 295 289 294 296 294 289 271 236 221 236 218 210 211 213 210 210 227 237 228 232 255 258
167 230 262 278 79 327 180 156 126 159 213 264 276 266 263 275 276 298 301 296 294 301 305 311 313 313 308 297 301 330 213 222 243 218 208 211 214 215 215 212 236 247 250 252
143 169 290 324 198 201 156 166 169 171 195 211 271 266 233 227 249 264 271 280 284 284 290 303 316 321 338 1 4 355 343 333 321 270 237 214 223 220 208 210 226 234 244 242
162 141 235 245 246 228 210 198 170 187 239 225 252 268 269 241 277 285 290 297 299 300 304 311 320 342 354 2 2 344 333 327 312 301 246 220 235 228 220 232 237 228 231 234
152 138 37 330 319 307 229 213 192 164 166 207 231 264 300 315 309 296 291 299 306 314 320 328 333 326 325 329 331 325 327 320 328 340 330 266 240 236 244 252 268 245 232 239
144 173 197 217 227 198 228 229 204 177 207 232 236 261 283 290 294 296 295 295 299 306 309 319 319 315 318 324 327 328 331 335 341 350 301 268 258 247 251 263 279 273 249 248
147 210 227 250 253 225 234 237 218 214 218 229 251 255 266 272 267 274 285 292 298 300 303 305 305 311 320 329 330 328 327 334 340 340 308 286 289 303 313 309 295 304 314 301
152 198 204 266 255 257 263 251 233 233 235 243 261 267 266 276 273 275 278 280 277 281 286 294 300 300 297 295 299 310 315 323 346 332 305 307 317 328 324 310 315 349 342 336
171 161 177 255 300 344 266 236 219 222 219 216 239 255 273 280 271 264 264 259 260 272 280 284 289 280 278 278 276 283 297 322 344 329 325 331 333 336 328 333 359 344 320 334
172 166 178 212 78 240 246 209 208 226 239 231 248 261 261 262 274 267 249 244 261 270 275 279 286 289 292 294 303 312 322 330 331 329 328 333 338 335 341 359 349 329 325 315
189 171 169 176 229 268 280 244 193 210 253 237 245 261 271 288 306 277 254 241 252 262 264 264 269 283 298 301 313 335 332 338 337 321 316 317 317 322 337 335 325 326 333 326
176 169 172 179 206 242 252 227 182 145 267 252 227 244 258 288 273 269 285 287 286 286 280 280 309 331 324 316 336 342 315 322 305 299 302 311 313 307 307 309 322 334 331 319
163 186 202 208 229 256 253 206 129 182 254 272 218 231 232 223 237 268 290 287 290 300 302 322 325 327 318 323 346 294 314 298 303 316 334 340 347 328 312 337 341 344 346 347
178 182 197 188 218 249 202 147 184 224 273 278 247 243 242 253 270 278 280 287 296 308 320 344 353 338 347 358 5 313 306 319 335 351 360 355 2 359 4 5 349 351 359 359
200 195 189 197 217 229 170 193 214 223 246 252 253 260 250 265 272 271 275 281 288 280 297 340 346 343 353 6 17 317 326 343 353 14 7 360 10 12 3 359 342 344 345 350
232 209 194 230 248 237 221 234 261 258 255 266 266 264 258 260 266 264 264 271 271 273 287 348 17 344 336 357 11 357 339 353 16 8 348 349 4 8 13 355 342 298 283 294
202 179 201 237 257 279 252 239 252 262 268 279 281 270 256 253 258 254 262 261 258 285 320 335 298 303 320 349 356 358 1 18 21 347 323 324 316 341 16 354 298 287 261 239
189 182 193 227 217 213 242 247 247 247 259 265 274 286 284 245 249 253 254 251 248 266 314 327 327 324 327 340 336 348 358 16 87 278 304 297 301 312 322 4 358 347 337 330